Погода в Габукае

Россия / Республика Адыгея     44°55′41″N   39°33′53″E
темп.,
°C
ветер,
м/с
пор.,
м/с
влажн.,
%
обл.,
%
осадки,
мм/ч
давл.,
гПа
погр.,
м
7 мая, пт
пт700:00+12зсз34776 0.0 101370
03:00+10з33670 0.0 101440
06:00+9з347238 0.0 101656
09:00+15зюз47613 0.0 1017389
12:00+20з68535 0.0 10171200
15:00+20з675613 0.0 10171193
18:00+18зюз367011 0.0 1017211
21:00+13юз22715 0.0 101813
8 мая, сб
сб800:00+11ююв22821 0.0 101813
03:00+11юв339167 0.0 101638
06:00+11ю1189100 0.0 101623
09:00+17вюв1170100 0.0 1015272
12:00+22в1156100 0.0 1014785
15:00+22вюв1255100 0.0 1013701
18:00+21в237396 0.0 101256
21:00+16вюв228637 0.0 101113
9 мая, вс
вс900:00+16юв228375 0.1 101022
03:00+14з51072100 0.1 1010207
06:00+12зсз1297100 2.4 100985
09:00+12зсз6896100 5.1 1011548
12:00+8сз81294100 1.5 1016860
15:00+7сз71092100 3.2 10201085
18:00+7сз51092100 0.4 10231153
21:00+7с2285100 0.8 102656
10 мая, пн
пн1000:00+6зюз3489100 0.0 102584
03:00+7ююз5990100 0.4 1024244
06:00+7зюз3692100 0.3 1024227
09:00+11сз5674100 0.9 1023686
12:00+12сз5667100 1.0 10231265
15:00+10ссз7973100 1.5 10231058
18:00+7з5893100 2.1 1023970
21:00+7зюз81195100 7.3 1022652
11 мая, вт
вт1100:00+7юз111695100 6.4 1019753
03:00+8юз121893100 12.0 1017947
06:00+9юз121893100 5.7 1016898
09:00+9юз121992100 13.1 10171015
12:00+9ююз121989100 3.1 1017987
15:00+10ююз111884100 4.2 1017953
18:00+10ююз91578100 0.3 1018891
21:00+9ю51081100 1.3 1019357